Time,TemperatureF,DewpointF,PressureIn,WindDirection,WindDirectionDegrees,WindSpeedMPH,WindSpeedGustMPH,Humidity,HourlyPrecipIn,Conditions,Clouds,dailyrainin,SoftwareType,DateUTC
2013-11-24 00:02:00,23.7,7.8,30.00,NE,34,19.8,27.2,50,0.00,,---,0.00,VWS V14.00,2013-11-24 06:02:00,
2013-11-24 00:07:00,23.9,8.0,29.97,NNE,15,12.4,15.9,50,0.00,,---,0.00,VWS V14.00,2013-11-24 06:07:00,
2013-11-24 00:12:00,23.7,7.8,29.97,North,353,16.4,20.7,50,0.00,,---,0.00,VWS V14.00,2013-11-24 06:12:00,
2013-11-24 00:17:00,23.7,7.8,29.97,NNE,24,21.8,27.2,50,0.00,,---,0.00,VWS V14.00,2013-11-24 06:17:00,
2013-11-24 00:22:00,23.7,7.8,29.97,NNE,18,23.2,28.8,50,0.00,,---,0.00,VWS V14.00,2013-11-24 06:22:00,
2013-11-24 00:27:00,23.7,7.8,29.97,NNE,16,13.1,16.7,50,0.00,,---,0.00,VWS V14.00,2013-11-24 06:27:00,
2013-11-24 00:32:00,23.7,8.2,29.97,North,4,19.1,24.0,51,0.00,,---,0.00,VWS V14.00,2013-11-24 06:32:00,
2013-11-24 00:37:00,23.5,8.1,29.97,NNE,18,19.1,24.0,51,0.00,,---,0.00,VWS V14.00,2013-11-24 06:37:00,
2013-11-24 00:42:00,23.5,8.1,29.97,North,1,15.1,19.1,51,0.00,,---,0.00,VWS V14.00,2013-11-24 06:42:00,
2013-11-24 00:47:00,23.5,8.1,29.97,NE,37,19.1,24.0,51,0.00,,---,0.00,VWS V14.00,2013-11-24 06:47:00,
2013-11-24 00:52:00,23.5,8.1,29.97,NNE,31,15.8,19.9,51,0.00,,---,0.00,VWS V14.00,2013-11-24 06:52:00,
2013-11-24 00:57:00,23.5,8.1,29.97,NNE,13,16.4,20.7,51,0.00,,---,0.00,VWS V14.00,2013-11-24 06:57:00,
2013-11-24 01:02:00,23.4,7.9,29.97,NNE,22,11.4,20.7,51,0.00,,---,0.00,VWS V14.00,2013-11-24 07:02:00,
2013-11-24 01:07:00,23.2,7.8,29.97,NE,35,19.8,24.8,51,0.00,,---,0.00,VWS V14.00,2013-11-24 07:07:00,
2013-11-24 01:12:00,23.2,7.8,29.97,North,353,13.1,16.7,51,0.00,,---,0.00,VWS V14.00,2013-11-24 07:12:00,
2013-11-24 01:17:00,22.8,7.4,29.97,North,11,13.1,23.1,51,0.00,,---,0.00,VWS V14.00,2013-11-24 07:17:00,
2013-11-24 01:22:00,22.6,7.2,30.00,NNE,14,16.4,20.7,51,0.00,,---,0.00,VWS V14.00,2013-11-24 07:22:00,
2013-11-24 01:27:00,22.5,7.1,30.00,NNE,21,15.8,19.9,51,0.00,,---,0.00,VWS V14.00,2013-11-24 07:27:00,
2013-11-24 01:32:00,22.5,7.1,30.00,NNE,15,12.1,15.5,51,0.00,,---,0.00,VWS V14.00,2013-11-24 07:32:00,
2013-11-24 01:37:00,22.3,6.9,30.00,NNE,12,12.4,16.7,51,0.00,,---,0.00,VWS V14.00,2013-11-24 07:37:00,
2013-11-24 01:42:00,22.3,6.9,30.00,NNE,19,13.1,16.7,51,0.00,,---,0.00,VWS V14.00,2013-11-24 07:42:00,
2013-11-24 01:47:00,22.1,7.2,30.00,NNE,25,12.1,15.5,52,0.00,,---,0.00,VWS V14.00,2013-11-24 07:47:00,
2013-11-24 01:52:00,21.9,7.0,29.97,North,357,13.1,16.7,52,0.00,,---,0.00,VWS V14.00,2013-11-24 07:52:00,
2013-11-24 01:57:00,21.9,7.0,29.97,North,3,11.4,14.7,52,0.00,,---,0.00,VWS V14.00,2013-11-24 07:57:00,
2013-11-24 02:02:00,21.7,6.8,29.97,NNE,15,15.1,19.1,52,0.00,,---,0.00,VWS V14.00,2013-11-24 08:02:00,
2013-11-24 02:07:00,21.7,6.8,29.97,NNE,21,12.4,15.9,52,0.00,,---,0.00,VWS V14.00,2013-11-24 08:07:00,
2013-11-24 02:12:00,21.6,7.1,29.97,NNE,30,13.1,16.7,53,0.00,,---,0.00,VWS V14.00,2013-11-24 08:12:00,
2013-11-24 02:17:00,21.6,7.1,29.97,NNE,19,14.4,18.3,53,0.00,,---,0.00,VWS V14.00,2013-11-24 08:17:00,
2013-11-24 02:22:00,21.6,7.1,30.00,North,2,12.1,15.5,53,0.00,,---,0.00,VWS V14.00,2013-11-24 08:22:00,
2013-11-24 02:27:00,21.6,7.1,30.00,North,0,8.1,10.7,53,0.00,,---,0.00,VWS V14.00,2013-11-24 08:27:00,
2013-11-24 02:32:00,21.4,6.9,30.00,NNE,21,7.4,9.9,53,0.00,,---,0.00,VWS V14.00,2013-11-24 08:32:00,
2013-11-24 02:37:00,21.4,6.9,30.00,North,2,9.4,12.3,53,0.00,,---,0.00,VWS V14.00,2013-11-24 08:37:00,
2013-11-24 02:42:00,21.2,7.2,30.00,North,10,8.7,16.7,54,0.00,,---,0.00,VWS V14.00,2013-11-24 08:42:00,
2013-11-24 02:47:00,21.2,7.2,30.00,NNE,17,9.4,12.3,54,0.00,,---,0.00,VWS V14.00,2013-11-24 08:47:00,
2013-11-24 02:52:00,21.2,7.2,30.00,NNE,26,11.4,14.7,54,0.00,,---,0.00,VWS V14.00,2013-11-24 08:52:00,
2013-11-24 02:57:00,21.0,7.0,30.00,NNE,27,12.1,15.5,54,0.00,,---,0.00,VWS V14.00,2013-11-24 08:57:00,
2013-11-24 03:02:00,21.0,7.0,30.00,North,9,11.4,14.7,54,0.00,,---,0.00,VWS V14.00,2013-11-24 09:02:00,
2013-11-24 03:07:00,20.8,7.2,30.00,NNE,27,9.4,12.3,55,0.00,,---,0.00,VWS V14.00,2013-11-24 09:07:00,
2013-11-24 03:12:00,20.8,7.2,30.00,North,353,11.4,14.7,55,0.00,,---,0.00,VWS V14.00,2013-11-24 09:12:00,
2013-11-24 03:17:00,20.8,7.2,30.00,North,4,12.4,15.9,55,0.00,,---,0.00,VWS V14.00,2013-11-24 09:17:00,
2013-11-24 03:22:00,20.8,7.2,30.00,NNE,19,11.4,14.7,55,0.00,,---,0.00,VWS V14.00,2013-11-24 09:22:00,
2013-11-24 03:27:00,20.7,7.1,30.00,North,1,9.4,12.3,55,0.00,,---,0.00,VWS V14.00,2013-11-24 09:27:00,
2013-11-24 03:32:00,20.7,7.1,30.00,NNE,20,9.4,12.3,55,0.00,,---,0.00,VWS V14.00,2013-11-24 09:32:00,
2013-11-24 03:37:00,20.7,7.1,30.00,NNE,16,8.7,11.5,55,0.00,,---,0.00,VWS V14.00,2013-11-24 09:37:00,
2013-11-24 03:42:00,20.7,7.1,30.00,North,5,13.1,16.7,55,0.00,,---,0.00,VWS V14.00,2013-11-24 09:42:00,
2013-11-24 03:47:00,20.7,7.1,30.00,NNE,19,13.1,16.7,55,0.00,,---,0.00,VWS V14.00,2013-11-24 09:47:00,
2013-11-24 03:52:00,20.5,6.9,30.00,NNE,26,12.4,15.9,55,0.00,,---,0.00,VWS V14.00,2013-11-24 09:52:00,
2013-11-24 03:57:00,20.5,6.9,30.00,NNE,28,13.1,16.7,55,0.00,,---,0.00,VWS V14.00,2013-11-24 09:57:00,
2013-11-24 04:02:00,20.3,6.7,30.00,NNE,14,12.1,15.5,55,0.00,,---,0.00,VWS V14.00,2013-11-24 10:02:00,
2013-11-24 04:07:00,20.3,6.7,30.00,NNE,20,8.1,10.7,55,0.00,,---,0.00,VWS V14.00,2013-11-24 10:07:00,
2013-11-24 04:12:00,20.3,6.7,30.00,NNE,21,11.4,14.7,55,0.00,,---,0.00,VWS V14.00,2013-11-24 10:12:00,
2013-11-24 04:17:00,20.1,6.9,30.00,North,4,12.4,15.9,56,0.00,,---,0.00,VWS V14.00,2013-11-24 10:17:00,
2013-11-24 04:22:00,20.1,6.9,30.00,NNE,14,8.7,11.5,56,0.00,,---,0.00,VWS V14.00,2013-11-24 10:22:00,
2013-11-24 04:27:00,20.1,6.9,30.00,North,357,11.4,16.7,56,0.00,,---,0.00,VWS V14.00,2013-11-24 10:27:00,
2013-11-24 04:32:00,19.9,6.8,30.00,NNE,18,11.4,14.7,56,0.00,,---,0.00,VWS V14.00,2013-11-24 10:32:00,
2013-11-24 04:37:00,19.9,6.8,30.00,North,9,8.7,11.5,56,0.00,,---,0.00,VWS V14.00,2013-11-24 10:37:00,
2013-11-24 04:42:00,19.9,6.8,30.00,NNE,22,8.7,11.5,56,0.00,,---,0.00,VWS V14.00,2013-11-24 10:42:00,
2013-11-24 04:47:00,19.8,6.6,30.00,NNE,19,12.1,16.7,56,0.00,,---,0.00,VWS V14.00,2013-11-24 10:47:00,
2013-11-24 04:52:00,19.8,7.0,30.00,North,11,9.4,15.5,57,0.00,,---,0.00,VWS V14.00,2013-11-24 10:52:00,
2013-11-24 04:57:00,19.8,7.0,30.00,North,8,9.4,12.3,57,0.00,,---,0.00,VWS V14.00,2013-11-24 10:57:00,
2013-11-24 05:02:00,19.8,7.0,30.00,NNE,32,8.7,15.5,57,0.00,,---,0.00,VWS V14.00,2013-11-24 11:02:00,
2013-11-24 05:07:00,19.8,7.0,30.03,NNE,15,11.4,14.7,57,0.00,,---,0.00,VWS V14.00,2013-11-24 11:07:00,
2013-11-24 05:12:00,19.6,6.8,30.03,NNE,20,11.4,14.7,57,0.00,,---,0.00,VWS V14.00,2013-11-24 11:12:00,
2013-11-24 05:17:00,19.6,6.8,30.03,North,10,8.7,11.5,57,0.00,,---,0.00,VWS V14.00,2013-11-24 11:17:00,
2013-11-24 05:22:00,19.4,6.7,30.03,NNE,19,8.7,11.5,57,0.00,,---,0.00,VWS V14.00,2013-11-24 11:22:00,
2013-11-24 05:27:00,19.4,6.7,30.03,NNE,15,10.7,13.9,57,0.00,,---,0.00,VWS V14.00,2013-11-24 11:27:00,
2013-11-24 05:32:00,19.4,6.7,30.03,North,11,7.4,12.3,57,0.00,,---,0.00,VWS V14.00,2013-11-24 11:32:00,
2013-11-24 05:37:00,19.4,6.7,30.03,NNE,24,8.1,10.7,57,0.00,,---,0.00,VWS V14.00,2013-11-24 11:37:00,
2013-11-24 05:42:00,19.4,6.7,30.03,NNE,27,6.0,11.5,57,0.00,,---,0.00,VWS V14.00,2013-11-24 11:42:00,
2013-11-24 05:47:00,19.2,6.5,30.03,NNE,13,9.4,12.3,57,0.00,,---,0.00,VWS V14.00,2013-11-24 11:47:00,
2013-11-24 05:52:00,19.2,6.9,30.03,NNE,27,10.1,13.1,58,0.00,,---,0.00,VWS V14.00,2013-11-24 11:52:00,
2013-11-24 05:57:00,19.0,6.7,30.03,NNE,26,8.7,11.5,58,0.00,,---,0.00,VWS V14.00,2013-11-24 11:57:00,
2013-11-24 06:02:00,19.0,6.7,30.03,NNE,21,8.7,11.5,58,0.00,,---,0.00,VWS V14.00,2013-11-24 12:02:00,
2013-11-24 06:07:00,18.9,6.5,30.03,NNE,12,11.4,14.7,58,0.00,,---,0.00,VWS V14.00,2013-11-24 12:07:00,
2013-11-24 06:12:00,18.9,6.5,30.03,NNE,25,9.4,12.3,58,0.00,,---,0.00,VWS V14.00,2013-11-24 12:12:00,
2013-11-24 06:17:00,18.9,6.5,30.03,North,0,8.7,12.3,58,0.00,,---,0.00,VWS V14.00,2013-11-24 12:17:00,
2013-11-24 06:22:00,18.9,6.5,30.03,North,1,10.1,13.1,58,0.00,,---,0.00,VWS V14.00,2013-11-24 12:22:00,
2013-11-24 06:27:00,18.9,6.5,30.03,North,7,9.4,12.3,58,0.00,,---,0.00,VWS V14.00,2013-11-24 12:27:00,
2013-11-24 06:32:00,18.7,6.4,30.03,NNE,19,8.7,11.5,58,0.00,,---,0.00,VWS V14.00,2013-11-24 12:32:00,
2013-11-24 06:37:00,18.7,6.4,30.06,NNE,19,8.7,11.5,58,0.00,,---,0.00,VWS V14.00,2013-11-24 12:37:00,
2013-11-24 06:42:00,18.7,6.4,30.06,NNE,13,7.4,9.9,58,0.00,,---,0.00,VWS V14.00,2013-11-24 12:42:00,
2013-11-24 06:47:00,18.7,6.4,30.06,NNE,19,7.4,9.9,58,0.00,,---,0.00,VWS V14.00,2013-11-24 12:47:00,
2013-11-24 06:52:00,18.7,6.4,30.06,North,5,9.4,12.3,58,0.00,,---,0.00,VWS V14.00,2013-11-24 12:52:00,
2013-11-24 06:57:00,18.7,6.4,30.06,North,2,8.7,11.5,58,0.00,,---,0.00,VWS V14.00,2013-11-24 12:57:00,
2013-11-24 07:02:00,18.7,6.4,30.06,NNE,23,8.1,12.3,58,0.00,,---,0.00,VWS V14.00,2013-11-24 13:02:00,
2013-11-24 07:07:00,19.0,7.1,30.06,NNE,18,10.7,15.5,59,0.00,,---,0.00,VWS V14.00,2013-11-24 13:07:00,
2013-11-24 07:12:00,19.2,7.2,30.06,NNE,29,9.4,12.3,59,0.00,,---,0.00,VWS V14.00,2013-11-24 13:12:00,
2013-11-24 07:17:00,19.6,7.6,30.06,NNE,17,12.1,15.5,59,0.00,,---,0.00,VWS V14.00,2013-11-24 13:17:00,
2013-11-24 07:22:00,19.8,7.8,30.06,NNE,23,12.4,15.9,59,0.00,,---,0.00,VWS V14.00,2013-11-24 13:22:00,
2013-11-24 07:27:00,19.9,7.9,30.06,NNE,29,13.1,16.7,59,0.00,,---,0.00,VWS V14.00,2013-11-24 13:27:00,
2013-11-24 07:32:00,20.1,8.1,30.06,NNE,29,11.4,14.7,59,0.00,,---,0.00,VWS V14.00,2013-11-24 13:32:00,
2013-11-24 07:37:00,20.3,8.3,30.06,NNE,29,11.4,14.7,59,0.00,,---,0.00,VWS V14.00,2013-11-24 13:37:00,
2013-11-24 07:42:00,20.5,8.4,30.06,NNE,17,10.1,15.9,59,0.00,,---,0.00,VWS V14.00,2013-11-24 13:42:00,
2013-11-24 07:47:00,20.7,8.6,30.06,NNE,29,12.1,15.5,59,0.00,,---,0.00,VWS V14.00,2013-11-24 13:47:00,
2013-11-24 07:52:00,20.8,9.2,30.06,ENE,58,8.1,10.7,60,0.00,,---,0.00,VWS V14.00,2013-11-24 13:52:00,
2013-11-24 07:57:00,21.0,8.9,30.06,NNE,24,12.4,15.9,59,0.00,,---,0.00,VWS V14.00,2013-11-24 13:57:00,
2013-11-24 08:02:00,21.2,9.1,30.06,NNE,32,14.4,18.3,59,0.00,,---,0.00,VWS V14.00,2013-11-24 14:02:00,
2013-11-24 08:07:00,21.6,9.5,30.06,NE,47,8.1,10.7,59,0.00,,---,0.00,VWS V14.00,2013-11-24 14:07:00,
2013-11-24 08:12:00,21.6,8.7,30.06,NNE,31,12.1,19.1,57,0.00,,---,0.00,VWS V14.00,2013-11-24 14:12:00,
2013-11-24 08:17:00,21.9,9.0,30.06,NE,37,12.1,15.5,57,0.00,,---,0.00,VWS V14.00,2013-11-24 14:17:00,
2013-11-24 08:22:00,22.1,9.2,30.06,ENE,70,8.7,11.5,57,0.00,,---,0.00,VWS V14.00,2013-11-24 14:22:00,
2013-11-24 08:27:00,22.5,9.5,30.06,NE,55,12.1,16.7,57,0.00,,---,0.00,VWS V14.00,2013-11-24 14:27:00,
2013-11-24 08:32:00,22.8,9.5,30.06,NE,48,12.1,15.5,56,0.00,,---,0.00,VWS V14.00,2013-11-24 14:32:00,
2013-11-24 08:37:00,23.0,9.2,30.06,NE,53,8.1,10.7,55,0.00,,---,0.00,VWS V14.00,2013-11-24 14:37:00,
2013-11-24 08:42:00,23.5,9.4,30.06,NE,44,12.4,15.9,54,0.00,,---,0.00,VWS V14.00,2013-11-24 14:42:00,
2013-11-24 08:47:00,23.5,8.1,30.06,NE,35,10.1,13.1,51,0.00,,---,0.00,VWS V14.00,2013-11-24 14:47:00,
2013-11-24 08:52:00,23.7,7.8,30.06,NE,38,9.4,14.7,50,0.00,,---,0.00,VWS V14.00,2013-11-24 14:52:00,
2013-11-24 08:57:00,23.7,7.4,30.06,NE,39,17.8,22.3,49,0.00,,---,0.00,VWS V14.00,2013-11-24 14:57:00,
2013-11-24 09:02:00,24.1,7.7,30.06,NNE,23,19.8,24.8,49,0.00,,---,0.00,VWS V14.00,2013-11-24 15:02:00,
2013-11-24 09:07:00,24.4,8.0,30.06,NNE,32,14.4,18.3,49,0.00,,---,0.00,VWS V14.00,2013-11-24 15:07:00,
2013-11-24 09:12:00,24.4,7.6,30.06,NE,38,8.1,15.9,48,0.00,,---,0.00,VWS V14.00,2013-11-24 15:12:00,
2013-11-24 09:17:00,24.4,7.6,30.06,ENE,69,8.1,10.7,48,0.00,,---,0.00,VWS V14.00,2013-11-24 15:17:00,
2013-11-24 09:22:00,25.0,8.1,30.06,NNE,21,16.4,21.5,48,0.00,,---,0.00,VWS V14.00,2013-11-24 15:22:00,
2013-11-24 09:27:00,25.2,8.2,30.06,NE,37,8.1,10.7,48,0.00,,---,0.00,VWS V14.00,2013-11-24 15:27:00,
2013-11-24 09:32:00,25.2,7.3,30.06,NE,37,16.4,20.7,46,0.00,,---,0.00,VWS V14.00,2013-11-24 15:32:00,
2013-11-24 09:37:00,25.3,7.5,30.06,NE,51,19.8,24.8,46,0.00,,---,0.00,VWS V14.00,2013-11-24 15:37:00,
2013-11-24 09:42:00,25.7,7.8,30.06,ENE,60,12.4,18.3,46,0.00,,---,0.00,VWS V14.00,2013-11-24 15:42:00,
2013-11-24 09:47:00,25.7,7.8,30.06,ENE,73,12.4,15.9,46,0.00,,---,0.00,VWS V14.00,2013-11-24 15:47:00,
2013-11-24 09:52:00,26.1,8.1,30.06,NE,34,15.8,19.9,46,0.00,,---,0.00,VWS V14.00,2013-11-24 15:52:00,
2013-11-24 09:57:00,26.2,7.8,30.06,ENE,69,13.1,18.3,45,0.00,,---,0.00,VWS V14.00,2013-11-24 15:57:00,
2013-11-24 10:02:00,26.2,7.8,30.06,ENE,60,8.7,11.5,45,0.00,,---,0.00,VWS V14.00,2013-11-24 16:02:00,
2013-11-24 10:07:00,26.6,8.6,30.03,NNE,29,12.1,15.5,46,0.00,,---,0.00,VWS V14.00,2013-11-24 16:07:00,
2013-11-24 10:12:00,26.4,8.0,30.03,ENE,60,8.7,11.5,45,0.00,,---,0.00,VWS V14.00,2013-11-24 16:12:00,
2013-11-24 10:17:00,26.8,8.3,30.03,NNE,30,15.1,19.1,45,0.00,,---,0.00,VWS V14.00,2013-11-24 16:17:00,
2013-11-24 10:22:00,27.0,8.5,30.03,ENE,71,8.1,10.7,45,0.00,,---,0.00,VWS V14.00,2013-11-24 16:22:00,
2013-11-24 10:27:00,27.0,8.0,30.03,NE,55,8.7,11.5,44,0.00,,---,0.00,VWS V14.00,2013-11-24 16:27:00,
2013-11-24 10:32:00,27.0,8.0,30.03,ENE,58,4.7,6.6,44,0.00,,---,0.00,VWS V14.00,2013-11-24 16:32:00,
2013-11-24 10:37:00,27.7,9.1,30.03,NE,35,4.7,6.6,45,0.00,,---,0.00,VWS V14.00,2013-11-24 16:37:00,
2013-11-24 10:42:00,27.9,8.8,30.03,ESE,104,12.1,15.5,44,0.00,,---,0.00,VWS V14.00,2013-11-24 16:42:00,
2013-11-24 10:47:00,28.4,9.3,30.03,ENE,69,15.1,19.1,44,0.00,,---,0.00,VWS V14.00,2013-11-24 16:47:00,
2013-11-24 10:52:00,28.9,9.3,30.03,East,94,17.8,22.3,43,0.00,,---,0.00,VWS V14.00,2013-11-24 16:52:00,
2013-11-24 10:57:00,29.1,9.4,30.03,ENE,73,13.1,16.7,43,0.00,,---,0.00,VWS V14.00,2013-11-24 16:57:00,
2013-11-24 11:02:00,28.9,9.3,30.03,East,79,15.8,19.9,43,0.00,,---,0.00,VWS V14.00,2013-11-24 17:02:00,
2013-11-24 11:07:00,28.9,9.3,30.00,ENE,57,10.1,13.1,43,0.00,,---,0.00,VWS V14.00,2013-11-24 17:07:00,
2013-11-24 11:12:00,29.1,9.4,30.00,NNE,32,13.1,16.7,43,0.00,,---,0.00,VWS V14.00,2013-11-24 17:12:00,
2013-11-24 11:17:00,29.8,10.1,30.00,NNE,26,8.1,10.7,43,0.00,,---,0.00,VWS V14.00,2013-11-24 17:17:00,
2013-11-24 11:22:00,29.7,9.9,30.00,NNE,29,8.1,16.7,43,0.00,,---,0.00,VWS V14.00,2013-11-24 17:22:00,
2013-11-24 11:27:00,29.8,10.1,30.00,ENE,68,16.4,20.7,43,0.00,,---,0.00,VWS V14.00,2013-11-24 17:27:00,
2013-11-24 11:32:00,30.0,9.7,30.00,NE,36,12.1,15.5,42,0.00,,---,0.00,VWS V14.00,2013-11-24 17:32:00,
2013-11-24 11:37:00,29.8,9.6,30.00,NE,36,7.4,12.3,42,0.00,,---,0.00,VWS V14.00,2013-11-24 17:37:00,
2013-11-24 11:42:00,30.0,9.7,30.00,ENE,62,13.1,16.7,42,0.00,,---,0.00,VWS V14.00,2013-11-24 17:42:00,
2013-11-24 11:47:00,30.4,9.0,30.00,NE,34,18.5,23.1,40,0.00,,---,0.00,VWS V14.00,2013-11-24 17:47:00,
2013-11-24 11:52:00,30.6,9.1,30.00,NNE,29,16.4,20.7,40,0.00,,---,0.00,VWS V14.00,2013-11-24 17:52:00,
2013-11-24 11:57:00,30.7,9.3,30.00,NE,47,12.4,15.9,40,0.00,,---,0.00,VWS V14.00,2013-11-24 17:57:00,
2013-11-24 12:02:00,30.9,10.0,29.97,East,79,10.7,13.9,41,0.00,,---,0.00,VWS V14.00,2013-11-24 18:02:00,
2013-11-24 12:07:00,31.1,9.6,29.97,East,79,12.1,15.5,40,0.00,,---,0.00,VWS V14.00,2013-11-24 18:07:00,
2013-11-24 12:12:00,31.3,9.2,29.97,NE,55,12.1,15.5,39,0.00,,---,0.00,VWS V14.00,2013-11-24 18:12:00,
2013-11-24 12:17:00,31.3,9.8,29.97,NE,41,13.1,16.7,40,0.00,,---,0.00,VWS V14.00,2013-11-24 18:17:00,
2013-11-24 12:22:00,31.6,10.1,29.97,ENE,66,20.5,25.6,40,0.00,,---,0.00,VWS V14.00,2013-11-24 18:22:00,
2013-11-24 12:27:00,31.8,9.7,29.97,ENE,59,8.1,10.7,39,0.00,,---,0.00,VWS V14.00,2013-11-24 18:27:00,
2013-11-24 12:32:00,32.2,10.0,29.97,NNE,33,8.1,10.7,39,0.00,,---,0.00,VWS V14.00,2013-11-24 18:32:00,
2013-11-24 12:37:00,32.0,9.3,29.97,ENE,74,5.4,9.9,38,0.00,,---,0.00,VWS V14.00,2013-11-24 18:37:00,
2013-11-24 12:42:00,32.4,10.2,29.97,NE,42,9.4,12.3,39,0.00,,---,0.00,VWS V14.00,2013-11-24 18:42:00,
2013-11-24 12:47:00,32.5,9.8,29.97,ENE,59,12.1,15.5,38,0.00,,---,0.00,VWS V14.00,2013-11-24 18:47:00,
2013-11-24 12:52:00,32.9,10.1,29.94,ENE,73,11.4,14.7,38,0.00,,---,0.00,VWS V14.00,2013-11-24 18:52:00,
2013-11-24 12:57:00,32.7,9.9,29.94,NNE,20,8.1,10.7,38,0.00,,---,0.00,VWS V14.00,2013-11-24 18:57:00,
2013-11-24 13:02:00,32.5,9.8,29.94,NNE,20,12.1,15.5,38,0.00,,---,0.00,VWS V14.00,2013-11-24 19:02:00,
2013-11-24 13:07:00,32.5,9.8,29.94,ENE,67,12.1,15.5,38,0.00,,---,0.00,VWS V14.00,2013-11-24 19:07:00,
2013-11-24 13:12:00,32.4,9.6,29.94,ENE,60,4.7,6.6,38,0.00,,---,0.00,VWS V14.00,2013-11-24 19:12:00,
2013-11-24 13:17:00,32.4,9.6,29.94,East,82,12.1,15.5,38,0.00,,---,0.00,VWS V14.00,2013-11-24 19:17:00,
2013-11-24 13:22:00,32.7,9.9,29.94,NE,37,14.4,18.3,38,0.00,,---,0.00,VWS V14.00,2013-11-24 19:22:00,
2013-11-24 13:27:00,32.7,9.3,29.94,NE,49,7.4,9.9,37,0.00,,---,0.00,VWS V14.00,2013-11-24 19:27:00,
2013-11-24 13:32:00,33.1,9.7,29.94,NE,44,12.1,15.5,37,0.00,,---,0.00,VWS V14.00,2013-11-24 19:32:00,
2013-11-24 13:37:00,32.9,9.5,29.94,NE,56,7.4,15.5,37,0.00,,---,0.00,VWS V14.00,2013-11-24 19:37:00,
2013-11-24 13:42:00,33.1,9.7,29.94,NE,34,15.1,19.1,37,0.00,,---,0.00,VWS V14.00,2013-11-24 19:42:00,
2013-11-24 13:47:00,32.7,9.3,29.94,North,8,12.4,15.9,37,0.00,,---,0.00,VWS V14.00,2013-11-24 19:47:00,
2013-11-24 13:52:00,32.4,9.0,29.94,NE,55,6.7,14.7,37,0.00,,---,0.00,VWS V14.00,2013-11-24 19:52:00,
2013-11-24 13:57:00,32.4,9.0,29.94,ENE,59,9.4,12.3,37,0.00,,---,0.00,VWS V14.00,2013-11-24 19:57:00,
2013-11-24 14:02:00,32.2,8.9,29.94,East,89,8.1,10.7,37,0.00,,---,0.00,VWS V14.00,2013-11-24 20:02:00,
2013-11-24 14:07:00,32.2,8.9,29.94,ENE,65,11.4,14.7,37,0.00,,---,0.00,VWS V14.00,2013-11-24 20:07:00,
2013-11-24 14:12:00,32.4,9.0,29.91,East,83,10.1,13.1,37,0.00,,---,0.00,VWS V14.00,2013-11-24 20:12:00,
2013-11-24 14:17:00,32.4,9.0,29.91,NNE,33,13.1,16.7,37,0.00,,---,0.00,VWS V14.00,2013-11-24 20:17:00,
2013-11-24 14:22:00,32.2,8.9,29.91,NE,36,8.7,11.5,37,0.00,,---,0.00,VWS V14.00,2013-11-24 20:22:00,
2013-11-24 14:27:00,32.4,9.0,29.91,NE,36,14.4,18.3,37,0.00,,---,0.00,VWS V14.00,2013-11-24 20:27:00,
2013-11-24 14:32:00,32.5,9.8,29.91,East,79,10.7,13.9,38,0.00,,---,0.00,VWS V14.00,2013-11-24 20:32:00,
2013-11-24 14:37:00,32.5,9.2,29.91,NE,56,5.4,7.4,37,0.00,,---,0.00,VWS V14.00,2013-11-24 20:37:00,
2013-11-24 14:42:00,32.5,9.2,29.91,NE,54,7.4,9.9,37,0.00,,---,0.00,VWS V14.00,2013-11-24 20:42:00,
2013-11-24 14:47:00,32.5,9.2,29.91,ENE,58,12.4,15.9,37,0.00,,---,0.00,VWS V14.00,2013-11-24 20:47:00,
2013-11-24 14:52:00,32.5,9.2,29.91,NE,56,8.7,11.5,37,0.00,,---,0.00,VWS V14.00,2013-11-24 20:52:00,
2013-11-24 14:57:00,32.5,9.2,29.91,ENE,75,11.4,15.5,37,0.00,,---,0.00,VWS V14.00,2013-11-24 20:57:00,
2013-11-24 15:02:00,32.4,9.0,29.91,ENE,70,9.4,14.7,37,0.00,,---,0.00,VWS V14.00,2013-11-24 21:02:00,
2013-11-24 15:07:00,32.2,8.9,29.91,NE,54,10.1,13.1,37,0.00,,---,0.00,VWS V14.00,2013-11-24 21:07:00,
2013-11-24 15:12:00,32.2,8.9,29.91,East,93,8.7,11.5,37,0.00,,---,0.00,VWS V14.00,2013-11-24 21:12:00,
2013-11-24 15:17:00,32.2,8.9,29.91,ENE,72,8.1,10.7,37,0.00,,---,0.00,VWS V14.00,2013-11-24 21:17:00,
2013-11-24 15:22:00,32.0,8.7,29.91,NE,40,10.1,13.1,37,0.00,,---,0.00,VWS V14.00,2013-11-24 21:22:00,
2013-11-24 15:27:00,32.0,8.7,29.91,NE,55,5.4,7.4,37,0.00,,---,0.00,VWS V14.00,2013-11-24 21:27:00,
2013-11-24 15:32:00,32.0,8.7,29.91,ENE,71,5.4,9.9,37,0.00,,---,0.00,VWS V14.00,2013-11-24 21:32:00,
2013-11-24 15:37:00,31.8,8.5,29.91,ENE,70,7.4,9.9,37,0.00,,---,0.00,VWS V14.00,2013-11-24 21:37:00,
2013-11-24 15:42:00,31.8,8.5,29.91,ENE,63,6.0,8.2,37,0.00,,---,0.00,VWS V14.00,2013-11-24 21:42:00,
2013-11-24 15:47:00,31.6,8.4,29.91,ENE,70,7.4,9.9,37,0.00,,---,0.00,VWS V14.00,2013-11-24 21:47:00,
2013-11-24 15:52:00,31.6,8.4,29.91,ENE,70,8.1,10.7,37,0.00,,---,0.00,VWS V14.00,2013-11-24 21:52:00,
2013-11-24 15:57:00,31.6,9.0,29.91,NE,52,5.4,7.4,38,0.00,,---,0.00,VWS V14.00,2013-11-24 21:57:00,
2013-11-24 16:02:00,31.5,8.8,29.91,ENE,64,5.4,7.4,38,0.00,,---,0.00,VWS V14.00,2013-11-24 22:02:00,
2013-11-24 16:07:00,31.3,8.6,29.91,ENE,78,9.4,12.3,38,0.00,,---,0.00,VWS V14.00,2013-11-24 22:07:00,
2013-11-24 16:12:00,31.3,8.6,29.91,ENE,69,7.4,9.9,38,0.00,,---,0.00,VWS V14.00,2013-11-24 22:12:00,
2013-11-24 16:17:00,31.1,8.5,29.91,ENE,59,9.4,12.3,38,0.00,,---,0.00,VWS V14.00,2013-11-24 22:17:00,
2013-11-24 16:22:00,31.1,8.5,29.91,ENE,77,8.1,10.7,38,0.00,,---,0.00,VWS V14.00,2013-11-24 22:22:00,
2013-11-24 16:27:00,30.7,8.7,29.91,ENE,69,6.0,8.2,39,0.00,,---,0.00,VWS V14.00,2013-11-24 22:27:00,
2013-11-24 16:32:00,30.6,8.6,29.91,ENE,61,5.4,7.4,39,0.00,,---,0.00,VWS V14.00,2013-11-24 22:32:00,
2013-11-24 16:37:00,30.4,8.4,29.91,ENE,62,0.0,1.0,39,0.00,,---,0.00,VWS V14.00,2013-11-24 22:37:00,
2013-11-24 16:42:00,30.2,8.8,29.91,NE,54,4.7,6.6,40,0.00,,---,0.00,VWS V14.00,2013-11-24 22:42:00,
2013-11-24 16:47:00,30.2,8.8,29.91,NE,49,4.0,5.8,40,0.00,,---,0.00,VWS V14.00,2013-11-24 22:47:00,
2013-11-24 16:52:00,30.0,8.6,29.91,NE,47,4.7,6.6,40,0.00,,---,0.00,VWS V14.00,2013-11-24 22:52:00,
2013-11-24 16:57:00,30.0,8.6,29.91,NE,46,4.0,5.8,40,0.00,,---,0.00,VWS V14.00,2013-11-24 22:57:00,
2013-11-24 17:02:00,29.8,8.5,29.91,NE,40,7.4,9.9,40,0.00,,---,0.00,VWS V14.00,2013-11-24 23:02:00,
2013-11-24 17:07:00,29.7,8.3,29.91,NNE,30,6.0,8.2,40,0.00,,---,0.00,VWS V14.00,2013-11-24 23:07:00,
2013-11-24 17:12:00,29.5,8.7,29.91,NE,35,7.4,9.9,41,0.00,,---,0.00,VWS V14.00,2013-11-24 23:12:00,
2013-11-24 17:17:00,29.5,8.7,29.91,NE,34,6.0,8.2,41,0.00,,---,0.00,VWS V14.00,2013-11-24 23:17:00,
2013-11-24 17:22:00,29.5,8.7,29.91,NE,43,4.0,8.2,41,0.00,,---,0.00,VWS V14.00,2013-11-24 23:22:00,
2013-11-24 17:27:00,29.5,8.7,29.91,NE,49,5.4,7.4,41,0.00,,---,0.00,VWS V14.00,2013-11-24 23:27:00,
2013-11-24 17:32:00,29.5,8.7,29.91,NE,42,6.0,8.2,41,0.00,,---,0.00,VWS V14.00,2013-11-24 23:32:00,
2013-11-24 17:37:00,29.5,9.2,29.91,NE,55,0.0,1.0,42,0.00,,---,0.00,VWS V14.00,2013-11-24 23:37:00,
2013-11-24 17:42:00,29.3,9.1,29.91,NE,54,5.4,7.4,42,0.00,,---,0.00,VWS V14.00,2013-11-24 23:42:00,
2013-11-24 17:47:00,29.3,9.1,29.91,NE,51,4.0,5.8,42,0.00,,---,0.00,VWS V14.00,2013-11-24 23:47:00,
2013-11-24 17:52:00,29.1,8.9,29.91,NE,51,0.0,5.0,42,0.00,,---,0.00,VWS V14.00,2013-11-24 23:52:00,
2013-11-24 17:57:00,29.1,9.4,29.91,NE,51,4.7,6.6,43,0.00,,---,0.00,VWS V14.00,2013-11-24 23:57:00,
2013-11-24 18:02:00,28.9,9.3,29.91,NE,52,5.4,7.4,43,0.00,,---,0.00,VWS V14.00,2013-11-25 00:02:00,
2013-11-24 18:07:00,28.9,9.3,29.91,NE,52,4.0,5.8,43,0.00,,---,0.00,VWS V14.00,2013-11-25 00:07:00,
2013-11-24 18:12:00,28.9,9.3,29.91,NE,48,3.4,5.0,43,0.00,,---,0.00,VWS V14.00,2013-11-25 00:12:00,
2013-11-24 18:17:00,28.8,9.1,29.91,ENE,58,0.0,1.0,43,0.00,,---,0.00,VWS V14.00,2013-11-25 00:17:00,
2013-11-24 18:22:00,28.8,9.1,29.88,NE,53,0.0,1.0,43,0.00,,---,0.00,VWS V14.00,2013-11-25 00:22:00,
2013-11-24 18:27:00,28.6,8.9,29.88,ENE,67,0.0,1.0,43,0.00,,---,0.00,VWS V14.00,2013-11-25 00:27:00,
2013-11-24 18:32:00,28.6,8.9,29.88,ENE,67,0.0,1.0,43,0.00,,---,0.00,VWS V14.00,2013-11-25 00:32:00,
2013-11-24 18:37:00,28.4,9.3,29.88,ENE,67,0.0,1.0,44,0.00,,---,0.00,VWS V14.00,2013-11-25 00:37:00,
2013-11-24 18:42:00,28.4,9.3,29.88,ENE,67,0.0,1.0,44,0.00,,---,0.00,VWS V14.00,2013-11-25 00:42:00,
2013-11-24 18:47:00,28.2,9.1,29.88,ENE,67,0.0,1.0,44,0.00,,---,0.00,VWS V14.00,2013-11-25 00:47:00,
2013-11-24 18:52:00,28.2,9.1,29.88,ENE,67,0.0,1.0,44,0.00,,---,0.00,VWS V14.00,2013-11-25 00:52:00,
2013-11-24 18:57:00,28.2,9.1,29.88,ENE,67,0.0,1.0,44,0.00,,---,0.00,VWS V14.00,2013-11-25 00:57:00,
2013-11-24 19:02:00,28.2,9.1,29.88,ENE,67,0.0,1.0,44,0.00,,---,0.00,VWS V14.00,2013-11-25 01:02:00,
2013-11-24 19:07:00,28.0,8.9,29.88,ENE,67,0.0,1.0,44,0.00,,---,0.00,VWS V14.00,2013-11-25 01:07:00,
2013-11-24 19:12:00,27.9,8.8,29.88,ENE,67,0.0,1.0,44,0.00,,---,0.00,VWS V14.00,2013-11-25 01:12:00,
2013-11-24 19:17:00,27.9,8.8,29.88,ENE,67,0.0,1.0,44,0.00,,---,0.00,VWS V14.00,2013-11-25 01:17:00,
2013-11-24 19:22:00,27.9,8.8,29.88,ENE,67,0.0,1.0,44,0.00,,---,0.00,VWS V14.00,2013-11-25 01:22:00,
2013-11-24 19:27:00,27.9,9.3,29.88,ENE,67,0.0,1.0,45,0.00,,---,0.00,VWS V14.00,2013-11-25 01:27:00,
2013-11-24 19:32:00,27.7,9.1,29.88,ENE,67,0.0,1.0,45,0.00,,---,0.00,VWS V14.00,2013-11-25 01:32:00,
2013-11-24 19:37:00,27.7,9.1,29.88,ENE,67,4.0,5.8,45,0.00,,---,0.00,VWS V14.00,2013-11-25 01:37:00,
2013-11-24 19:42:00,27.7,9.1,29.88,ENE,67,0.0,1.0,45,0.00,,---,0.00,VWS V14.00,2013-11-25 01:42:00,
2013-11-24 19:47:00,27.7,9.1,29.88,ENE,67,0.0,1.0,45,0.00,,---,0.00,VWS V14.00,2013-11-25 01:47:00,
2013-11-24 19:52:00,27.7,9.1,29.88,ENE,62,0.0,5.8,45,0.00,,---,0.00,VWS V14.00,2013-11-25 01:52:00,
2013-11-24 19:57:00,27.7,9.6,29.88,ENE,62,4.0,5.8,46,0.00,,---,0.00,VWS V14.00,2013-11-25 01:57:00,
2013-11-24 20:02:00,27.5,9.4,29.88,ENE,62,3.4,5.0,46,0.00,,---,0.00,VWS V14.00,2013-11-25 02:02:00,
2013-11-24 20:07:00,27.5,9.4,29.88,ENE,63,4.7,6.6,46,0.00,,---,0.00,VWS V14.00,2013-11-25 02:07:00,
2013-11-24 20:12:00,27.5,9.4,29.88,ENE,65,4.0,7.4,46,0.00,,---,0.00,VWS V14.00,2013-11-25 02:12:00,
2013-11-24 20:17:00,27.5,9.4,29.88,ENE,73,4.7,6.6,46,0.00,,---,0.00,VWS V14.00,2013-11-25 02:17:00,
2013-11-24 20:22:00,27.5,9.4,29.88,ENE,72,4.7,7.4,46,0.00,,---,0.00,VWS V14.00,2013-11-25 02:22:00,
2013-11-24 20:27:00,27.7,9.6,29.88,ENE,76,5.4,7.4,46,0.00,,---,0.00,VWS V14.00,2013-11-25 02:27:00,
2013-11-24 20:32:00,27.7,9.6,29.88,East,84,5.4,7.4,46,0.00,,---,0.00,VWS V14.00,2013-11-25 02:32:00,
2013-11-24 20:37:00,27.9,9.8,29.88,East,79,4.0,7.4,46,0.00,,---,0.00,VWS V14.00,2013-11-25 02:37:00,
2013-11-24 20:42:00,27.9,9.8,29.88,ENE,64,5.4,9.9,46,0.00,,---,0.00,VWS V14.00,2013-11-25 02:42:00,
2013-11-24 20:47:00,27.9,9.8,29.88,ENE,75,5.4,8.2,46,0.00,,---,0.00,VWS V14.00,2013-11-25 02:47:00,
2013-11-24 20:52:00,27.9,10.3,29.88,ENE,71,6.0,8.2,47,0.00,,---,0.00,VWS V14.00,2013-11-25 02:52:00,
2013-11-24 20:57:00,27.9,10.3,29.88,ENE,74,5.4,9.1,47,0.00,,---,0.00,VWS V14.00,2013-11-25 02:57:00,
2013-11-24 21:02:00,28.0,10.4,29.88,ENE,59,5.4,8.2,47,0.00,,---,0.00,VWS V14.00,2013-11-25 03:02:00,
2013-11-24 21:07:00,28.0,10.4,29.88,ENE,72,4.7,6.6,47,0.00,,---,0.00,VWS V14.00,2013-11-25 03:07:00,
2013-11-24 21:12:00,28.0,10.4,29.88,NE,55,4.7,6.6,47,0.00,,---,0.00,VWS V14.00,2013-11-25 03:12:00,
2013-11-24 21:17:00,28.0,10.4,29.88,ENE,73,7.4,9.9,47,0.00,,---,0.00,VWS V14.00,2013-11-25 03:17:00,
2013-11-24 21:22:00,28.2,10.6,29.88,NE,52,4.7,6.6,47,0.00,,---,0.00,VWS V14.00,2013-11-25 03:22:00,
2013-11-24 21:27:00,28.2,10.6,29.88,NE,52,4.0,9.1,47,0.00,,---,0.00,VWS V14.00,2013-11-25 03:27:00,
2013-11-24 21:32:00,28.2,10.6,29.88,ENE,60,4.0,5.8,47,0.00,,---,0.00,VWS V14.00,2013-11-25 03:32:00,
2013-11-24 21:37:00,28.4,10.8,29.88,NE,54,5.4,7.4,47,0.00,,---,0.00,VWS V14.00,2013-11-25 03:37:00,
2013-11-24 21:42:00,28.4,10.8,29.88,NE,48,3.4,5.0,47,0.00,,---,0.00,VWS V14.00,2013-11-25 03:42:00,
2013-11-24 21:47:00,28.4,10.8,29.88,ENE,60,4.0,6.6,47,0.00,,---,0.00,VWS V14.00,2013-11-25 03:47:00,
2013-11-24 21:52:00,28.6,10.4,29.88,ENE,64,4.7,6.6,46,0.00,,---,0.00,VWS V14.00,2013-11-25 03:52:00,
2013-11-24 21:57:00,28.6,10.4,29.88,NE,41,6.0,8.2,46,0.00,,---,0.00,VWS V14.00,2013-11-25 03:57:00,
2013-11-24 22:02:00,28.6,10.4,29.88,ENE,57,4.7,10.7,46,0.00,,---,0.00,VWS V14.00,2013-11-25 04:02:00,
2013-11-24 22:07:00,28.6,10.4,29.88,NE,46,5.4,7.4,46,0.00,,---,0.00,VWS V14.00,2013-11-25 04:07:00,
2013-11-24 22:12:00,28.6,10.4,29.88,NE,46,4.0,8.2,46,0.00,,---,0.00,VWS V14.00,2013-11-25 04:12:00,
2013-11-24 22:17:00,28.6,10.4,29.88,ENE,67,6.0,9.9,46,0.00,,---,0.00,VWS V14.00,2013-11-25 04:17:00,
2013-11-24 22:22:00,28.6,10.4,29.88,ENE,57,4.0,5.8,46,0.00,,---,0.00,VWS V14.00,2013-11-25 04:22:00,
2013-11-24 22:27:00,28.6,10.4,29.85,ENE,70,6.0,10.7,46,0.00,,---,0.00,VWS V14.00,2013-11-25 04:27:00,
2013-11-24 22:32:00,28.6,10.4,29.85,NE,50,3.4,5.8,46,0.00,,---,0.00,VWS V14.00,2013-11-25 04:32:00,
2013-11-24 22:37:00,28.6,10.4,29.85,ENE,78,8.1,10.7,46,0.00,,---,0.00,VWS V14.00,2013-11-25 04:37:00,
2013-11-24 22:42:00,28.6,10.4,29.85,East,96,7.4,9.9,46,0.00,,---,0.00,VWS V14.00,2013-11-25 04:42:00,
2013-11-24 22:47:00,28.6,10.4,29.85,East,95,8.7,11.5,46,0.00,,---,0.00,VWS V14.00,2013-11-25 04:47:00,
2013-11-24 22:52:00,28.6,10.4,29.85,ENE,58,9.4,12.3,46,0.00,,---,0.00,VWS V14.00,2013-11-25 04:52:00,
2013-11-24 22:57:00,28.6,10.4,29.85,East,98,11.4,14.7,46,0.00,,---,0.00,VWS V14.00,2013-11-25 04:57:00,
2013-11-24 23:01:00,28.6,10.4,29.85,East,94,8.1,12.3,46,0.00,,---,0.00,VWS V14.00,2013-11-25 05:01:00,
2013-11-24 23:02:00,28.6,10.4,29.85,East,100,12.4,15.9,46,0.00,,---,0.00,VWS V14.00,2013-11-25 05:02:00,
2013-11-24 23:07:00,28.6,10.4,29.83,NE,53,4.7,10.7,46,0.00,,---,0.00,VWS V14.00,2013-11-25 05:07:00,
2013-11-24 23:12:00,28.6,10.4,29.83,East,86,6.0,10.7,46,0.00,,---,0.00,VWS V14.00,2013-11-25 05:12:00,
2013-11-24 23:17:00,28.6,10.4,29.83,East,97,6.0,10.7,46,0.00,,---,0.00,VWS V14.00,2013-11-25 05:17:00,
2013-11-24 23:22:00,28.6,10.4,29.83,East,87,4.0,8.2,46,0.00,,---,0.00,VWS V14.00,2013-11-25 05:22:00,
2013-11-24 23:27:00,28.6,10.4,29.83,ENE,68,5.4,7.4,46,0.00,,---,0.00,VWS V14.00,2013-11-25 05:27:00,
2013-11-24 23:32:00,28.6,10.4,29.83,ENE,75,4.0,6.6,46,0.00,,---,0.00,VWS V14.00,2013-11-25 05:32:00,
2013-11-24 23:36:00,28.6,10.4,29.83,East,95,5.4,7.4,46,0.00,,---,0.00,VWS V14.00,2013-11-25 05:36:00,
2013-11-24 23:41:00,28.6,10.4,29.83,East,92,7.4,12.3,46,0.00,,---,0.00,VWS V14.00,2013-11-25 05:41:00,
2013-11-24 23:46:00,28.8,10.6,29.83,ESE,104,8.7,11.5,46,0.00,,---,0.00,VWS V14.00,2013-11-25 05:46:00,
2013-11-24 23:51:00,28.8,10.6,29.83,East,85,6.7,9.1,46,0.00,,---,0.00,VWS V14.00,2013-11-25 05:51:00,
2013-11-24 23:56:00,28.8,10.6,29.83,ENE,77,7.4,9.9,46,0.00,,---,0.00,VWS V14.00,2013-11-25 05:56:00,